Wind_Speed
64 69 72 76 78 79 79 82 85 87 76 53 36 36 36 39 38 37 36 39 41 42 38 37 41 51 55 55 56 57 57 57 58 54 53 58 50 50 53 56 55 54 52 47 47
69 73 78 80 83 83 83 85 87 88 68 44 34 35 37 35 33 27 34 35 37 41 33 35 41 52 58 53 57 60 60 54 53 54 51 55 51 51 51 54 56 55 54 50 50
72 76 81 82 83 84 85 89 89 78 58 41 34 32 29 30 34 34 37 36 35 40 33 35 42 52 58 56 57 58 58 54 54 54 54 49 53 52 47 52 56 53 52 52 51
75 80 84 85 87 87 88 92 88 69 47 38 34 32 36 38 39 43 47 49 45 42 38 37 43 51 57 58 53 58 57 55 52 54 52 52 51 52 48 51 48 59 49 51 52
76 82 85 88 89 87 89 93 85 60 47 39 39 41 40 37 36 44 43 44 45 42 41 40 44 49 56 54 52 58 58 58 52 50 50 51 52 51 47 47 42 44 51 45 51
79 85 88 91 91 89 93 93 78 56 45 45 39 32 29 28 31 35 33 37 41 42 41 42 44 45 53 55 58 54 57 57 55 52 48 52 53 53 50 46 51 48 45 46 47
81 86 89 92 93 92 93 92 76 55 47 44 36 32 31 32 31 34 34 33 34 37 37 43 45 47 47 54 55 53 56 57 55 52 40 47 55 52 51 50 46 46 49 50 49
83 86 92 92 91 92 94 85 68 52 48 41 36 36 34 34 31 32 33 33 34 35 38 42 44 47 45 49 50 56 57 60 57 55 46 44 49 49 53 53 49 48 48 50 58
85 87 93 95 93 93 93 73 60 54 47 39 37 37 39 33 29 27 30 31 34 36 37 43 45 47 48 47 51 56 60 59 59 57 51 42 44 52 53 54 52 50 45 50 52
85 89 93 93 93 92 89 73 50 54 49 42 42 39 35 34 29 24 28 31 33 38 43 44 48 51 48 52 54 56 55 59 59 56 53 48 43 52 54 55 53 50 49 52 54
87 92 94 95 93 90 83 65 49 43 40 40 42 40 37 29 25 16 23 24 33 37 45 49 51 55 50 46 45 48 50 52 55 56 54 49 39 44 54 53 53 50 48 54 53
88 92 92 92 92 86 80 59 49 47 42 43 43 45 37 28 19 17 14 14 23 36 45 54 52 48 50 48 45 44 45 49 55 54 55 50 46 44 53 55 52 49 48 54 54
88 92 92 93 89 83 71 55 47 44 43 43 46 43 33 22 12 9 7 7 11 24 40 51 54 53 50 52 48 45 46 41 50 53 54 57 48 43 48 55 53 51 48 56 55
91 93 93 92 90 82 62 47 44 42 42 44 45 38 25 14 8 8 7 7 6 12 21 43 54 56 53 52 49 49 41 43 51 47 56 56 52 46 50 50 55 56 55 53 56
90 90 92 93 88 75 58 42 41 42 45 43 43 35 16 5 5 11 13 12 15 8 14 25 47 60 59 52 44 39 46 43 40 43 47 54 52 51 48 55 52 53 50 54 53
89 90 90 87 78 71 49 40 39 40 40 41 42 25 9 8 10 17 17 7 5 9 11 15 37 57 63 65 58 29 49 43 40 40 50 47 39 45 53 46 55 53 44 57 55
88 89 89 86 74 64 43 38 37 37 41 41 38 19 5 7 17 13 9 7 8 12 14 11 24 46 62 68 68 44 48 55 46 42 41 46 51 44 46 46 48 51 45 54 59
89 89 86 80 70 56 39 35 33 35 38 40 34 16 1 3 10 11 7 9 10 14 11 8 10 30 52 66 70 64 60 60 53 42 38 41 52 39 35 51 47 49 50 48 57
89 87 85 75 67 48 37 33 31 33 36 36 31 14 5 2 5 9 7 7 5 7 2 8 5 10 37 54 68 71 69 55 49 32 39 36 48 51 40 39 45 47 56 48 52
87 83 80 75 67 45 35 32 30 32 34 34 28 16 9 6 7 9 3 14 6 0 3 1 2 5 17 41 55 62 61 56 51 25 32 41 41 44 41 40 45 46 47 48 46
83 81 79 70 62 43 33 30 30 30 32 32 27 15 9 13 10 8 8 9 9 7 1 2 5 2 8 34 52 62 50 57 50 30 25 39 39 43 38 33 42 46 48 46 47
79 81 76 70 59 43 29 26 27 29 31 30 26 16 9 15 11 9 6 6 2 1 2 1 5 5 8 16 40 46 38 52 50 46 30 34 41 31 34 30 36 41 42 47 47
81 79 77 71 57 36 28 25 25 27 29 29 26 18 8 17 13 10 5 5 4 4 9 2 3 6 5 16 42 52 35 42 49 52 41 30 32 25 34 27 28 35 35 48 44
79 78 76 71 53 31 26 25 26 27 29 29 26 19 8 13 19 11 7 6 6 7 7 2 3 7 12 15 42 49 41 33 51 52 32 22 26 24 23 33 31 33 34 42 47
76 75 75 71 47 28 24 24 24 26 29 28 26 22 9 14 17 15 11 11 10 12 3 8 3 5 7 18 46 41 35 29 30 42 46 22 22 25 28 32 31 28 29 33 40
78 77 76 69 41 25 23 24 23 25 30 28 23 21 15 8 12 18 14 14 10 1 7 7 6 2 4 16 48 40 40 34 36 37 45 46 29 27 28 30 35 32 33 31 33
77 77 75 64 35 23 22 24 24 26 28 30 22 16 16 10 9 17 17 14 10 4 5 8 7 4 10 18 59 50 43 41 36 39 36 35 34 35 33 28 32 35 27 25 24
Wind_Direction
330 329 327 328 329 329 331 334 335 337 337 331 310 291 284 281 278 273 267 260 266 268 265 259 238 224 225 225 225 225 228 227 223 224 225 226 229 229 220 210 212 212 213 210 212
330 329 328 330 331 332 333 334 336 338 338 327 310 296 290 282 275 271 265 263 266 266 259 253 236 224 223 224 223 224 228 225 225 227 227 226 223 231 226 220 209 211 213 212 212
329 329 330 330 332 332 335 336 339 341 336 324 309 297 287 280 269 274 271 269 266 262 256 246 234 224 222 222 221 222 225 225 227 227 226 226 221 228 227 225 220 210 212 213 214
329 329 331 333 333 336 338 338 340 341 330 321 311 299 289 287 283 270 262 260 260 255 247 236 231 225 222 224 222 222 222 224 223 225 225 224 221 221 224 230 220 207 211 212 213
328 328 332 334 335 337 338 340 343 337 327 319 311 304 295 288 275 272 264 253 244 243 241 235 228 225 223 224 222 222 220 222 223 229 223 223 221 218 220 225 221 222 208 214 216
327 330 332 334 334 336 341 341 342 332 328 325 318 312 304 289 281 275 268 259 249 240 236 230 227 225 221 222 222 220 219 221 221 221 226 217 222 218 219 220 227 235 229 215 219
328 330 332 334 335 339 341 341 341 333 330 329 320 310 302 293 281 276 267 257 249 242 233 227 223 223 221 219 221 219 221 220 218 219 223 220 217 217 216 219 217 223 229 228 216
327 330 333 335 336 339 343 344 338 334 333 327 321 316 311 304 287 272 267 255 246 237 229 226 223 221 220 220 221 219 220 219 215 216 214 223 219 216 214 219 217 218 218 225 220
325 331 334 334 337 340 343 343 338 333 335 330 327 324 318 312 297 271 256 248 243 231 225 224 220 220 218 217 218 220 221 219 217 219 216 215 213 214 212 214 216 218 220 220 226
326 331 334 337 338 342 343 343 338 334 336 332 333 329 324 317 304 285 255 239 234 227 219 220 218 219 217 216 216 217 220 218 219 217 220 213 208 212 211 214 214 216 221 219 222
329 333 335 337 338 343 344 342 339 334 331 331 335 335 330 320 305 289 257 243 226 223 218 215 215 218 217 218 219 219 222 222 219 221 222 221 215 213 211 213 214 212 218 215 219
331 333 335 338 341 344 345 343 340 340 337 340 343 337 335 327 312 297 272 255 228 223 217 214 211 216 216 216 216 219 220 219 219 222 223 222 219 208 211 211 210 211 216 216 215
330 333 336 339 344 346 344 344 339 342 340 346 344 339 337 335 331 308 307 279 243 229 218 214 208 208 210 214 215 215 217 215 216 220 224 225 218 219 212 209 209 208 214 216 216
331 334 336 340 343 345 346 341 340 343 343 347 343 343 342 343 347 14 7 342 288 257 235 216 208 207 206 208 214 218 214 216 212 217 221 223 221 220 214 206 209 207 213 214 218
332 335 338 342 346 345 346 339 343 341 344 347 346 344 350 6 22 1 332 318 323 304 276 221 212 205 202 191 190 204 211 218 208 215 220 219 228 217 221 211 210 207 208 213 216
334 335 340 344 347 347 342 340 343 343 345 347 347 350 356 34 12 349 345 339 359 336 298 234 216 209 201 192 194 194 210 211 209 214 223 214 222 222 222 214 207 211 215 206 215
333 337 341 345 347 345 340 339 342 344 345 350 349 350 17 14 3 7 47 40 10 354 346 236 220 212 204 198 196 189 210 211 209 212 215 216 224 210 212 209 211 217 215 209 201
334 338 342 348 347 343 338 337 340 342 346 350 350 352 23 35 18 19 29 20 25 21 15 18 222 214 207 203 199 198 208 209 215 216 212 217 216 198 200 211 213 211 212 206 204
335 339 344 346 347 341 335 336 337 340 345 350 349 342 307 256 350 345 45 29 19 326 349 16 26 223 207 208 204 204 209 207 210 219 222 216 214 208 215 210 209 215 215 208 205
336 342 345 348 346 338 332 333 336 339 345 347 349 339 253 248 289 325 321 25 14 18 42 16 335 62 215 205 207 207 209 207 205 213 224 214 211 214 206 211 207 213 215 212 210
340 342 346 349 342 335 328 332 333 337 344 346 347 339 252 238 268 301 322 7 68 68 15 272 306 273 280 213 205 204 206 204 203 191 176 214 209 213 202 209 205 211 212 212 209
343 345 347 348 342 333 326 330 333 335 343 343 342 337 259 237 261 282 330 327 2 333 85 237 277 288 260 201 199 186 202 204 204 202 191 199 205 211 211 211 200 206 210 209 216
343 346 347 348 341 328 326 330 334 336 340 340 340 333 285 242 245 253 274 299 275 287 349 198 237 280 223 203 186 189 194 201 201 205 205 191 191 197 199 192 200 203 199 205 209
343 346 346 348 343 327 328 331 335 337 338 338 334 332 279 260 239 229 226 249 228 206 310 197 262 258 226 197 183 182 185 196 201 210 199 209 223 221 214 212 211 200 200 202 205
344 346 345 346 340 327 328 329 334 336 335 336 330 328 302 243 248 225 214 231 238 255 300 232 239 254 242 180 168 168 173 175 202 213 213 210 209 212 209 192 193 199 203 202 203
343 344 343 344 334 325 330 328 331 336 335 333 331 313 308 261 247 225 206 214 243 261 268 199 218 54 156 182 173 163 176 174 176 182 208 221 227 199 202 197 204 200 192 193 195
340 342 342 340 328 327 329 328 331 337 332 330 333 313 284 268 247 222 208 216 212 188 243 182 186 92 153 165 179 179 168 170 159 173 175 185 173 180 185 194 197 199 198 190 195
Height
5770 5760 5749 5739 5729 5719 5708 5697 5685 5674 5662 5653 5645 5641 5638 5637 5637 5637 5638 5641 5643 5644 5650 5653 5658 5664 5668 5674 5682 5687 5690 5699 5711 5719 5724 5728 5735 5743 5748 5756 5765 5774 5783 5790 5797
5762 5752 5740 5730 5718 5706 5694 5683 5672 5660 5648 5639 5634 5630 5628 5627 5626 5625 5626 5630 5631 5631 5638 5641 5646 5651 5656 5665 5669 5674 5681 5696 5705 5709 5714 5719 5729 5732 5740 5748 5756 5766 5775 5782 5787
5754 5744 5732 5720 5708 5695 5683 5669 5656 5645 5636 5628 5624 5621 5619 5617 5617 5614 5614 5618 5620 5620 5626 5631 5633 5639 5646 5652 5658 5666 5674 5686 5694 5699 5705 5711 5720 5724 5733 5739 5749 5758 5765 5773 5779
5746 5734 5721 5708 5695 5683 5669 5657 5643 5632 5623 5618 5614 5611 5608 5606 5605 5601 5601 5606 5608 5609 5613 5618 5621 5627 5636 5640 5653 5657 5668 5677 5684 5688 5697 5704 5710 5718 5726 5734 5738 5743 5753 5763 5770
5738 5724 5712 5698 5685 5672 5657 5644 5631 5621 5613 5608 5604 5598 5594 5591 5588 5582 5586 5589 5593 5597 5602 5606 5611 5616 5623 5637 5641 5646 5659 5665 5675 5681 5688 5694 5702 5709 5718 5725 5732 5739 5747 5755 5763
5729 5717 5703 5689 5674 5661 5647 5634 5621 5612 5604 5598 5591 5585 5581 5578 5575 5571 5573 5575 5579 5586 5591 5596 5601 5607 5613 5623 5627 5641 5648 5657 5665 5672 5680 5686 5693 5701 5709 5716 5725 5732 5739 5747 5755
5720 5707 5693 5678 5665 5651 5637 5624 5613 5603 5595 5587 5580 5575 5570 5567 5564 5559 5561 5563 5566 5572 5580 5585 5591 5597 5606 5612 5621 5631 5637 5645 5653 5662 5670 5677 5680 5696 5702 5707 5717 5725 5731 5737 5745
5712 5698 5684 5671 5657 5642 5628 5613 5602 5592 5586 5577 5570 5564 5558 5554 5552 5550 5548 5551 5556 5561 5568 5575 5581 5589 5597 5604 5614 5619 5625 5632 5646 5652 5661 5667 5680 5687 5694 5700 5708 5716 5722 5729 5738
5702 5691 5677 5662 5649 5635 5620 5605 5594 5582 5578 5569 5562 5554 5546 5541 5537 5537 5536 5538 5543 5551 5557 5563 5573 5579 5586 5593 5600 5606 5617 5628 5638 5645 5652 5659 5669 5676 5684 5692 5700 5708 5715 5721 5727
5695 5683 5667 5653 5639 5626 5612 5598 5585 5571 5565 5559 5553 5546 5537 5531 5526 5525 5524 5525 5530 5537 5545 5553 5560 5566 5575 5580 5586 5599 5608 5619 5628 5638 5643 5651 5659 5665 5675 5683 5691 5698 5705 5713 5720
5688 5674 5659 5644 5629 5616 5603 5593 5586 5578 5563 5555 5545 5536 5529 5522 5517 5516 5514 5514 5519 5526 5532 5538 5546 5554 5567 5577 5589 5595 5602 5613 5623 5629 5636 5644 5652 5658 5666 5674 5681 5690 5697 5705 5713
5681 5664 5648 5633 5619 5605 5592 5581 5571 5562 5554 5546 5536 5527 5519 5514 5510 5507 5507 5508 5510 5513 5520 5526 5537 5550 5561 5568 5577 5585 5594 5603 5613 5621 5629 5635 5643 5650 5655 5665 5673 5683 5691 5698 5704
5670 5656 5641 5626 5608 5596 5584 5573 5563 5556 5548 5538 5528 5521 5515 5509 5506 5503 5504 5502 5504 5504 5508 5516 5531 5538 5549 5558 5568 5576 5585 5596 5606 5614 5621 5626 5631 5638 5646 5655 5662 5674 5683 5688 5698
5663 5649 5633 5617 5606 5590 5577 5566 5558 5550 5542 5534 5525 5517 5512 5506 5504 5503 5502 5503 5502 5501 5501 5508 5518 5528 5539 5550 5560 5569 5581 5588 5596 5603 5609 5617 5622 5628 5639 5648 5656 5665 5673 5682 5690
5655 5640 5625 5608 5596 5583 5570 5561 5553 5546 5538 5530 5521 5513 5509 5506 5505 5504 5502 5500 5499 5498 5498 5503 5507 5516 5528 5546 5554 5565 5572 5580 5590 5597 5600 5608 5614 5626 5629 5636 5650 5661 5666 5676 5685
5647 5633 5616 5601 5588 5575 5564 5555 5548 5544 5535 5527 5516 5511 5507 5505 5504 5501 5498 5496 5496 5496 5494 5495 5498 5506 5521 5534 5545 5556 5563 5574 5582 5587 5590 5602 5608 5611 5621 5641 5649 5653 5661 5671 5679
5637 5623 5609 5595 5584 5568 5558 5551 5545 5539 5531 5524 5515 5509 5508 5506 5503 5500 5499 5497 5495 5492 5489 5488 5493 5497 5510 5523 5534 5543 5553 5562 5569 5575 5583 5593 5597 5608 5620 5626 5633 5645 5654 5662 5671
5631 5615 5600 5588 5575 5562 5553 5546 5540 5533 5526 5518 5512 5508 5507 5506 5503 5501 5499 5497 5494 5491 5489 5488 5491 5493 5503 5514 5525 5536 5544 5555 5563 5571 5580 5584 5591 5605 5612 5618 5626 5632 5642 5648 5661
5622 5606 5593 5580 5568 5556 5548 5541 5536 5529 5523 5516 5510 5507 5505 5504 5502 5500 5500 5497 5494 5494 5492 5491 5492 5492 5496 5507 5518 5528 5535 5555 5562 5570 5576 5581 5590 5600 5606 5612 5620 5627 5635 5645 5653
5615 5599 5584 5571 5558 5548 5542 5537 5531 5525 5518 5512 5507 5504 5502 5502 5501 5499 5498 5496 5493 5492 5491 5492 5493 5494 5495 5501 5511 5523 5538 5544 5555 5567 5569 5576 5583 5592 5601 5607 5615 5622 5630 5640 5649
5606 5592 5578 5564 5552 5542 5535 5529 5525 5520 5515 5509 5504 5500 5499 5499 5498 5497 5497 5495 5494 5494 5493 5492 5493 5495 5495 5496 5505 5516 5525 5537 5552 5558 5561 5570 5579 5588 5596 5602 5609 5616 5625 5633 5643
5598 5584 5569 5557 5548 5537 5530 5524 5521 5515 5509 5504 5500 5497 5495 5495 5495 5494 5495 5493 5493 5492 5493 5492 5491 5492 5492 5494 5503 5516 5524 5536 5546 5557 5562 5565 5575 5582 5589 5596 5603 5611 5619 5628 5636
5592 5579 5563 5550 5540 5531 5524 5520 5516 5511 5505 5500 5496 5493 5492 5490 5492 5492 5492 5493 5492 5491 5490 5490 5490 5490 5490 5491 5497 5510 5522 5532 5543 5552 5557 5564 5571 5577 5585 5591 5598 5606 5613 5622 5630
5583 5570 5557 5544 5532 5525 5520 5517 5511 5506 5501 5495 5491 5489 5488 5486 5486 5488 5489 5491 5491 5491 5489 5489 5489 5488 5490 5491 5498 5508 5521 5530 5540 5547 5557 5563 5568 5574 5582 5587 5595 5601 5608 5616 5625
5573 5560 5546 5538 5525 5518 5515 5510 5507 5502 5496 5492 5486 5483 5484 5483 5482 5483 5486 5487 5488 5488 5488 5488 5488 5487 5488 5492 5502 5515 5525 5532 5538 5545 5553 5559 5563 5569 5577 5584 5591 5598 5604 5612 5620
5566 5555 5539 5528 5518 5513 5509 5505 5501 5496 5491 5487 5483 5479 5478 5478 5478 5480 5482 5484 5484 5487 5487 5487 5488 5487 5487 5491 5503 5513 5523 5528 5532 5539 5548 5554 5563 5566 5572 5578 5586 5594 5601 5608 5615
5556 5546 5532 5521 5513 5509 5505 5500 5496 5491 5487 5481 5479 5476 5473 5474 5475 5476 5479 5481 5483 5485 5486 5487 5488 5488 5489 5491 5496 5506 5511 5520 5528 5536 5543 5552 5556 5561 5567 5576 5584 5592 5598 5604 5610